| time (UTC) | temp F | wind direction | speed MPH | gust MPH | rain 1hr in | rain 24hr in | rain mn in | humidity % | barometer mb |
| 20260831175102 | 77 | 286 | 8.0 | 20.0 | 0.00 | 0.00 | 0.00 | 40 | 1011.2 |
| 20260831174100 | 76 | 292 | 10.0 | 18.0 | 0.00 | 0.00 | 0.00 | 40 | 1010.9 |
| 20260831173603 | 76 | 290 | 11.0 | 24.0 | 0.00 | 0.00 | 0.00 | 40 | 1010.9 |
| 20260831173100 | 75 | 272 | 9.0 | 24.0 | 0.00 | 0.00 | 0.00 | 41 | 1011.0 |
| 20260831172601 | 75 | 258 | 9.0 | 20.0 | 0.00 | 0.00 | 0.00 | 41 | 1011.0 |
| 20260831172056 | 75 | 246 | 10.0 | 26.0 | 0.00 | 0.00 | 0.00 | 41 | 1011.0 |
| 20260831171604 | 75 | 250 | 13.0 | 26.0 | 0.00 | 0.00 | 0.00 | 40 | 1011.1 |
| 20260831171055 | 74 | 265 | 10.0 | 24.0 | 0.00 | 0.00 | 0.00 | 41 | 1010.8 |
| 20260831170554 | 74 | 280 | 11.0 | 24.0 | 0.00 | 0.00 | 0.00 | 41 | 1010.8 |
| 20260831170054 | 74 | 254 | 13.0 | 23.0 | 0.00 | 0.00 | 0.00 | 41 | 1010.7 |
| 20260831165554 | 73 | 292 | 11.0 | 22.0 | 0.00 | 0.00 | 0.00 | 41 | 1010.8 |
| 20260831165052 | 73 | 238 | 10.0 | 21.0 | 0.00 | 0.00 | 0.00 | 41 | 1010.8 |
| 20260831164056 | 73 | 294 | 11.0 | 21.0 | 0.00 | 0.00 | 0.00 | 41 | 1010.8 |
| 20260831163554 | 73 | 254 | 12.0 | 19.0 | 0.00 | 0.00 | 0.00 | 41 | 1010.7 |
| 20260831163054 | 73 | 278 | 11.0 | 20.0 | 0.00 | 0.00 | 0.00 | 41 | 1010.7 |
| 20260831162553 | 72 | 238 | 11.0 | 20.0 | 0.00 | 0.00 | 0.00 | 41 | 1010.6 |
| 20260831162052 | 72 | 269 | 11.0 | 20.0 | 0.00 | 0.00 | 0.00 | 40 | 1010.7 |
| 20260831161552 | 72 | 267 | 10.0 | 20.0 | 0.00 | 0.00 | 0.00 | 40 | 1010.7 |
| 20260831161052 | 72 | 261 | 11.0 | 20.0 | 0.00 | 0.00 | 0.00 | 40 | 1010.8 |
| 20260831160551 | 72 | 261 | 12.0 | 24.0 | 0.00 | 0.00 | 0.00 | 40 | 1010.6 |
| 20260831160117 | 72 | 270 | 12.0 | 26.0 | 0.00 | 0.00 | 0.00 | 40 | 1010.8 |
| 20260831155550 | 71 | 277 | 14.0 | 26.0 | 0.00 | 0.00 | 0.00 | 39 | 1010.7 |
| 20260831155049 | 71 | 263 | 11.0 | 27.0 | 0.00 | 0.00 | 0.00 | 40 | 1010.6 |
| 20260831154051 | 71 | 261 | 12.0 | 27.0 | 0.00 | 0.00 | 0.00 | 41 | 1010.5 |
| 20260831153546 | 70 | 240 | 12.0 | 27.0 | 0.00 | 0.00 | 0.00 | 41 | 1010.5 |
| 20260831153121 | 70 | 263 | 13.0 | 23.0 | 0.00 | 0.00 | 0.00 | 41 | 1010.5 |
| 20260831152544 | 69 | 234 | 11.0 | 23.0 | 0.00 | 0.00 | 0.00 | 42 | 1010.7 |
| 20260831152045 | 69 | 237 | 12.0 | 19.0 | 0.00 | 0.00 | 0.00 | 42 | 1010.5 |
| 20260831151542 | 69 | 238 | 8.0 | 20.0 | 0.00 | 0.00 | 0.00 | 43 | 1010.4 |
| 20260831151042 | 68 | 253 | 14.0 | 20.0 | 0.00 | 0.00 | 0.00 | 42 | 1010.4 |
| 20260831150544 | 68 | 236 | 10.0 | 27.0 | 0.00 | 0.00 | 0.00 | 43 | 1010.6 |
| 20260831150040 | 68 | 237 | 12.0 | 27.0 | 0.00 | 0.00 | 0.00 | 43 | 1010.6 |
| 20260831145539 | 68 | 265 | 10.0 | 21.0 | 0.00 | 0.00 | 0.00 | 42 | 1010.4 |
| 20260831145042 | 67 | 290 | 12.0 | 27.0 | 0.00 | 0.00 | 0.00 | 42 | 1010.4 |
| 20260831144039 | 67 | 233 | 14.0 | 27.0 | 0.00 | 0.00 | 0.00 | 42 | 1010.2 |
| 20260831143538 | 67 | 228 | 14.0 | 25.0 | 0.00 | 0.00 | 0.00 | 43 | 1010.1 |
| 20260831143038 | 66 | 236 | 11.0 | 21.0 | 0.00 | 0.00 | 0.00 | 44 | 1010.1 |
| 20260831142536 | 65 | 256 | 13.0 | 26.0 | 0.00 | 0.00 | 0.00 | 44 | 1010.2 |
| 20260831142035 | 65 | 238 | 12.0 | 26.0 | 0.00 | 0.00 | 0.00 | 45 | 1010.4 |
| 20260831141535 | 64 | 284 | 16.0 | 23.0 | 0.00 | 0.00 | 0.00 | 45 | 1010.3 |
| 20260831141035 | 64 | 229 | 13.0 | 19.0 | 0.00 | 0.00 | 0.00 | 46 | 1010.2 |
| 20260831140530 | 64 | 241 | 10.0 | 18.0 | 0.00 | 0.00 | 0.00 | 47 | 1010.4 |
| 20260831140029 | 63 | 248 | 11.0 | 18.0 | 0.00 | 0.00 | 0.00 | 48 | 1010.3 |
| 20260831135529 | 62 | 238 | 11.0 | 18.0 | 0.00 | 0.00 | 0.00 | 49 | 1010.4 |
| 20260831135129 | 62 | 246 | 11.0 | 17.0 | 0.00 | 0.00 | 0.00 | 50 | 1010.5 |
| 20260831134027 | 61 | 240 | 11.0 | 20.0 | 0.00 | 0.00 | 0.00 | 52 | 1010.4 |
| 20260831133526 | 60 | 240 | 10.0 | 17.0 | 0.00 | 0.00 | 0.00 | 53 | 1010.4 |
| 20260831133125 | 60 | 238 | 10.0 | 17.0 | 0.00 | 0.00 | 0.00 | 54 | 1010.4 |
| 20260831132523 | 59 | 232 | 9.0 | 16.0 | 0.00 | 0.00 | 0.00 | 55 | 1010.3 |
| 20260831132022 | 59 | 251 | 9.0 | 14.0 | 0.00 | 0.00 | 0.00 | 56 | 1010.3 |
| 20260831131525 | 59 | 233 | 5.0 | 14.0 | 0.00 | 0.00 | 0.00 | 57 | 1010.4 |
| 20260831131019 | 58 | 235 | 7.0 | 14.0 | 0.00 | 0.00 | 0.00 | 57 | 1010.2 |
| 20260831130518 | 58 | 222 | 6.0 | 17.0 | 0.00 | 0.00 | 0.00 | 57 | 1010.0 |
| 20260831130017 | 57 | 246 | 10.0 | 17.0 | 0.00 | 0.00 | 0.00 | 58 | 1010.1 |
| 20260831125516 | 57 | 223 | 6.0 | 12.0 | 0.00 | 0.00 | 0.00 | 59 | 1010.0 |
| 20260831125017 | 56 | 266 | 5.0 | 12.0 | 0.00 | 0.00 | 0.00 | 59 | 1009.9 |
| 20260831124013 | 56 | 238 | 5.0 | 13.0 | 0.00 | 0.00 | 0.00 | 60 | 1010.0 |
| 20260831123515 | 56 | 244 | 6.0 | 15.0 | 0.00 | 0.00 | 0.00 | 60 | 1009.8 |
| 20260831123111 | 56 | 257 | 9.0 | 15.0 | 0.00 | 0.00 | 0.00 | 60 | 1009.8 |
| 20260831122511 | 56 | 234 | 8.0 | 13.0 | 0.00 | 0.00 | 0.00 | 61 | 1009.7 |
| 20260831122011 | 55 | 238 | 8.0 | 12.0 | 0.00 | 0.00 | 0.00 | 63 | 1009.8 |
| 20260831121521 | 55 | 232 | 7.0 | 13.0 | 0.00 | 0.00 | 0.00 | 63 | 1009.8 |
| 20260831121013 | 56 | 239 | 7.0 | 13.0 | 0.00 | 0.00 | 0.00 | 62 | 1009.8 |
| 20260831120509 | 56 | 234 | 7.0 | 14.0 | 0.00 | 0.00 | 0.00 | 62 | 1009.9 |
| 20260831120023 | 56 | 233 | 9.0 | 15.0 | 0.00 | 0.00 | 0.00 | 63 | 1009.9 |
| 20260831115508 | 56 | 229 | 10.0 | 15.0 | 0.00 | 0.00 | 0.00 | 64 | 1009.7 |
| 20260831115014 | 55 | 221 | 9.0 | 12.0 | 0.00 | 0.00 | 0.00 | 68 | 1009.5 |
| 20260831114009 | 55 | 223 | 9.0 | 12.0 | 0.00 | 0.00 | 0.00 | 70 | 1009.7 |
| 20260831113511 | 55 | 229 | 8.0 | 15.0 | 0.00 | 0.00 | 0.00 | 69 | 1009.4 |
| 20260831113008 | 55 | 225 | 9.0 | 15.0 | 0.00 | 0.00 | 0.00 | 67 | 1009.4 |
| 20260831112508 | 55 | 244 | 9.0 | 15.0 | 0.00 | 0.00 | 0.00 | 68 | 1009.2 |
| 20260831112008 | 55 | 242 | 9.0 | 15.0 | 0.00 | 0.00 | 0.00 | 70 | 1009.2 |
| 20260831111506 | 55 | 199 | 7.0 | 15.0 | 0.00 | 0.00 | 0.00 | 70 | 1009.1 |
| 20260831111007 | 54 | 215 | 8.0 | 12.0 | 0.00 | 0.00 | 0.00 | 70 | 1009.1 |
| 20260831110507 | 54 | 230 | 7.0 | 11.0 | 0.00 | 0.00 | 0.00 | 71 | 1009.2 |
| 20260831110006 | 54 | 227 | 7.0 | 9.0 | 0.00 | 0.00 | 0.00 | 71 | 1009.1 |
| 20260831105506 | 53 | 234 | 6.0 | 10.0 | 0.00 | 0.00 | 0.00 | 74 | 1009.1 |
| 20260831105009 | 54 | 211 | 5.0 | 10.0 | 0.00 | 0.00 | 0.00 | 73 | 1008.8 |
| 20260831104007 | 56 | 219 | 7.0 | 13.0 | 0.00 | 0.00 | 0.00 | 70 | 1008.9 |
| 20260831103506 | 56 | 227 | 9.0 | 13.0 | 0.00 | 0.00 | 0.00 | 69 | 1008.9 |
| 20260831103005 | 55 | 229 | 7.0 | 10.0 | 0.00 | 0.00 | 0.00 | 71 | 1008.9 |
| 20260831102506 | 56 | 222 | 7.0 | 18.0 | 0.00 | 0.00 | 0.00 | 71 | 1009.0 |
| 20260831102005 | 56 | 222 | 8.0 | 18.0 | 0.00 | 0.00 | 0.00 | 69 | 1009.1 |
| 20260831101506 | 56 | 237 | 4.0 | 16.0 | 0.00 | 0.00 | 0.00 | 71 | 1009.0 |
| 20260831101005 | 56 | 238 | 8.0 | 16.0 | 0.00 | 0.00 | 0.00 | 73 | 1009.0 |
| 20260831100502 | 56 | 236 | 7.0 | 15.0 | 0.00 | 0.00 | 0.00 | 75 | 1009.1 |
| 20260831100003 | 56 | 229 | 10.0 | 15.0 | 0.00 | 0.00 | 0.00 | 76 | 1009.2 |
| 20260831095501 | 56 | 225 | 10.0 | 15.0 | 0.00 | 0.00 | 0.00 | 76 | 1009.2 |
| 20260831095100 | 56 | 239 | 11.0 | 15.0 | 0.00 | 0.00 | 0.00 | 78 | 1009.1 |
| 20260831094035 | 53 | 250 | 7.0 | 11.0 | 0.00 | 0.00 | 0.00 | 85 | 1009.1 |
| 20260831093532 | 51 | 229 | 4.0 | 10.0 | 0.00 | 0.00 | 0.00 | 85 | 1009.4 |
| 20260831093030 | 51 | 143 | 0.0 | 4.0 | 0.00 | 0.00 | 0.00 | 83 | 1009.3 |
| 20260831092529 | 52 | 143 | 2.0 | 4.0 | 0.00 | 0.00 | 0.00 | 83 | 1009.1 |
| 20260831092032 | 52 | 143 | 1.0 | 6.0 | 0.00 | 0.00 | 0.00 | 83 | 1009.1 |
| 20260831091528 | 53 | 150 | 3.0 | 6.0 | 0.00 | 0.00 | 0.00 | 82 | 1009.1 |
| 20260831090557 | 53 | 140 | 5.0 | 10.0 | 0.00 | 0.00 | 0.00 | 81 | 1009.0 |
| 20260831090054 | 54 | 123 | 5.0 | 10.0 | 0.00 | 0.00 | 0.00 | 81 | 1009.0 |
| 20260831085554 | 54 | 200 | 2.0 | 6.0 | 0.00 | 0.00 | 0.00 | 81 | 1008.9 |
| 20260831085055 | 53 | 185 | 3.0 | 7.0 | 0.00 | 0.00 | 0.00 | 82 | 1008.9 |
| 20260831084557 | 54 | 188 | 3.0 | 8.0 | 0.00 | 0.00 | 0.00 | 82 | 1008.8 |
| 20260831084053 | 54 | 187 | 6.0 | 9.0 | 0.00 | 0.00 | 0.00 | 82 | 1008.9 |
| 20260831083554 | 53 | 181 | 5.0 | 7.0 | 0.00 | 0.00 | 0.00 | 83 | 1008.7 |
| 20260831083057 | 53 | 199 | 5.0 | 7.0 | 0.00 | 0.00 | 0.00 | 83 | 1008.8 |
| 20260831082554 | 53 | 195 | 3.0 | 8.0 | 0.00 | 0.00 | 0.00 | 82 | 1008.6 |
| 20260831082052 | 54 | 212 | 5.0 | 8.0 | 0.00 | 0.00 | 0.00 | 82 | 1008.7 |
| 20260831081558 | 54 | 210 | 5.0 | 8.0 | 0.00 | 0.00 | 0.00 | 82 | 1008.7 |
| 20260831080554 | 54 | 209 | 6.0 | 9.0 | 0.00 | 0.00 | 0.00 | 82 | 1008.6 |
| 20260831080050 | 54 | 221 | 6.0 | 11.0 | 0.00 | 0.00 | 0.00 | 81 | 1008.7 |
| 20260831075550 | 55 | 209 | 7.0 | 11.0 | 0.00 | 0.00 | 0.00 | 81 | 1008.6 |
| 20260831075049 | 55 | 190 | 8.0 | 11.0 | 0.00 | 0.00 | 0.00 | 81 | 1008.6 |
| 20260831074553 | 55 | 193 | 8.0 | 12.0 | 0.00 | 0.00 | 0.00 | 81 | 1008.7 |
| 20260831074048 | 55 | 204 | 7.0 | 10.0 | 0.00 | 0.00 | 0.00 | 80 | 1008.5 |
| 20260831073551 | 55 | 196 | 5.0 | 11.0 | 0.00 | 0.00 | 0.00 | 79 | 1008.6 |
| 20260831073048 | 55 | 189 | 8.0 | 12.0 | 0.00 | 0.00 | 0.00 | 79 | 1008.6 |
| 20260831072551 | 55 | 215 | 8.0 | 10.0 | 0.00 | 0.00 | 0.00 | 78 | 1008.7 |
| 20260831072046 | 55 | 215 | 6.0 | 9.0 | 0.00 | 0.00 | 0.00 | 78 | 1008.6 |
| 20260831071546 | 55 | 217 | 7.0 | 9.0 | 0.00 | 0.00 | 0.00 | 77 | 1008.6 |
| 20260831070549 | 54 | 220 | 5.0 | 8.0 | 0.00 | 0.00 | 0.00 | 77 | 1008.6 |
| 20260831070108 | 54 | 222 | 6.0 | 10.0 | 0.00 | 0.00 | 0.00 | 77 | 1008.7 |
| 20260831065546 | 54 | 225 | 6.0 | 11.0 | 0.00 | 0.00 | 0.00 | 78 | 1008.6 |
| 20260831065044 | 54 | 209 | 7.0 | 11.0 | 0.00 | 0.00 | 0.00 | 79 | 1008.6 |
| 20260831064645 | 54 | 209 | 4.0 | 7.0 | 0.00 | 0.00 | 0.00 | 78 | 1008.7 |
| 20260831064043 | 54 | 229 | 4.0 | 5.0 | 0.00 | 0.00 | 0.00 | 77 | 1008.7 |
| 20260831063541 | 55 | 241 | 3.0 | 5.0 | 0.00 | 0.00 | 0.00 | 76 | 1008.5 |
| 20260831063041 | 55 | 242 | 2.0 | 7.0 | 0.00 | 0.00 | 0.00 | 77 | 1008.8 |
| 20260831062541 | 55 | 241 | 3.0 | 7.0 | 0.00 | 0.00 | 0.00 | 77 | 1008.8 |
| 20260831062041 | 54 | 257 | 2.0 | 7.0 | 0.00 | 0.00 | 0.00 | 79 | 1008.7 |
| 20260831061541 | 54 | 258 | 1.0 | 7.0 | 0.00 | 0.00 | 0.00 | 80 | 1008.9 |
| 20260831060540 | 52 | 227 | 4.0 | 7.0 | 0.00 | 0.00 | 0.00 | 83 | 1009.1 |
| 20260831060048 | 51 | 227 | 4.0 | 7.0 | 0.00 | 0.00 | 0.00 | 84 | 1008.9 |
| 20260831055539 | 50 | 229 | 4.0 | 5.0 | 0.00 | 0.00 | 0.00 | 83 | 1008.9 |
| 20260831055043 | 50 | 229 | 4.0 | 5.0 | 0.00 | 0.00 | 0.00 | 84 | 1009.0 |
| 20260831054539 | 50 | 229 | 3.0 | 5.0 | 0.00 | 0.00 | 0.00 | 84 | 1008.9 |
| 20260831054039 | 50 | 230 | 3.0 | 5.0 | 0.00 | 0.00 | 0.00 | 84 | 1008.8 |
| 20260831053539 | 50 | 229 | 3.0 | 5.0 | 0.00 | 0.00 | 0.00 | 84 | 1008.9 |
| 20260831053039 | 50 | 229 | 3.0 | 5.0 | 0.00 | 0.00 | 0.00 | 84 | 1008.9 |
| 20260831052539 | 51 | 230 | 4.0 | 5.0 | 0.00 | 0.00 | 0.00 | 84 | 1009.0 |
| 20260831052040 | 51 | 230 | 3.0 | 5.0 | 0.00 | 0.00 | 0.00 | 85 | 1008.8 |
| 20260831051552 | 50 | 230 | 3.0 | 5.0 | 0.00 | 0.00 | 0.00 | 84 | 1009.1 |
| 20260831050540 | 50 | 231 | 3.0 | 5.0 | 0.00 | 0.00 | 0.00 | 84 | 1009.0 |
| 20260831050041 | 50 | 232 | 3.0 | 5.0 | 0.00 | 0.00 | 0.00 | 83 | 1008.9 |
| 20260831045539 | 51 | 232 | 3.0 | 4.0 | 0.00 | 0.00 | 0.00 | 83 | 1009.0 |
| 20260831045039 | 51 | 232 | 3.0 | 4.0 | 0.00 | 0.00 | 0.00 | 82 | 1008.9 |
| 20260831044543 | 51 | 232 | 2.0 | 4.0 | 0.00 | 0.00 | 0.00 | 83 | 1008.8 |
| 20260831044038 | 51 | 232 | 3.0 | 4.0 | 0.00 | 0.00 | 0.00 | 83 | 1008.9 |
| 20260831043537 | 52 | 232 | 3.0 | 5.0 | 0.00 | 0.00 | 0.00 | 83 | 1008.8 |
| 20260831043041 | 51 | 232 | 3.0 | 5.0 | 0.00 | 0.00 | 0.00 | 83 | 1009.0 |
| 20260831042537 | 51 | 234 | 3.0 | 4.0 | 0.00 | 0.00 | 0.00 | 83 | 1008.9 |
| 20260831042038 | 52 | 234 | 3.0 | 4.0 | 0.00 | 0.00 | 0.00 | 80 | 1008.9 |
| 20260831041536 | 53 | 250 | 2.0 | 4.0 | 0.00 | 0.00 | 0.00 | 79 | 1008.7 |
| 20260831040536 | 54 | 252 | 0.0 | 4.0 | 0.00 | 0.00 | 0.00 | 79 | 1008.6 |
| 20260831040045 | 54 | 252 | 1.0 | 4.0 | 0.00 | 0.00 | 0.00 | 80 | 1008.7 |
| 20260831035535 | 54 | 252 | 2.0 | 4.0 | 0.00 | 0.00 | 0.00 | 79 | 1008.7 |
| 20260831035034 | 54 | 252 | 2.0 | 4.0 | 0.00 | 0.00 | 0.00 | 78 | 1008.6 |
| 20260831034534 | 54 | 252 | 2.0 | 4.0 | 0.00 | 0.00 | 0.00 | 79 | 1008.6 |
| 20260831034034 | 54 | 252 | 2.0 | 4.0 | 0.00 | 0.00 | 0.00 | 79 | 1008.6 |
| 20260831033534 | 54 | 252 | 2.0 | 4.0 | 0.00 | 0.00 | 0.00 | 79 | 1008.7 |
| 20260831033033 | 54 | 252 | 3.0 | 4.0 | 0.00 | 0.00 | 0.00 | 77 | 1008.6 |
| 20260831032532 | 55 | 262 | 0.0 | 3.0 | 0.00 | 0.00 | 0.00 | 76 | 1008.5 |
| 20260831032031 | 56 | 263 | 0.0 | 3.0 | 0.00 | 0.00 | 0.00 | 76 | 1008.6 |
| 20260831031530 | 56 | 263 | 0.0 | 1.0 | 0.00 | 0.00 | 0.00 | 75 | 1008.5 |
| 20260831030526 | 57 | 263 | 0.0 | 1.0 | 0.00 | 0.00 | 0.00 | 74 | 1008.5 |
| 20260831030029 | 57 | 263 | 0.0 | 0.0 | 0.00 | 0.00 | 0.00 | 74 | 1008.7 |
| 20260831025525 | 57 | 263 | 0.0 | 0.0 | 0.00 | 0.00 | 0.00 | 74 | 1008.5 |
| 20260831025023 | 57 | 263 | 0.0 | 0.0 | 0.00 | 0.00 | 0.00 | 72 | 1008.5 |
| 20260831024523 | 58 | 263 | 0.0 | 2.0 | 0.00 | 0.00 | 0.00 | 71 | 1008.4 |
| 20260831024024 | 58 | 264 | 0.0 | 2.0 | 0.00 | 0.00 | 0.00 | 70 | 1008.3 |
| 20260831023520 | 59 | 264 | 1.0 | 2.0 | 0.00 | 0.00 | 0.00 | 70 | 1008.2 |
| 20260831023029 | 59 | 263 | 0.0 | 2.0 | 0.00 | 0.00 | 0.00 | 70 | 1008.3 |
| 20260831022519 | 59 | 264 | 0.0 | 3.0 | 0.00 | 0.00 | 0.00 | 70 | 1008.2 |
| 20260831022019 | 59 | 264 | 0.0 | 3.0 | 0.00 | 0.00 | 0.00 | 70 | 1008.2 |
| 20260831021539 | 60 | 264 | 2.0 | 3.0 | 0.00 | 0.00 | 0.00 | 69 | 1007.8 |
| 20260831020517 | 60 | 264 | 2.0 | 4.0 | 0.00 | 0.00 | 0.00 | 68 | 1007.7 |
| 20260831020015 | 60 | 264 | 2.0 | 4.0 | 0.00 | 0.00 | 0.00 | 67 | 1007.5 |
| 20260831015519 | 61 | 265 | 2.0 | 4.0 | 0.00 | 0.00 | 0.00 | 66 | 1007.4 |
| 20260831015019 | 61 | 271 | 2.0 | 3.0 | 0.00 | 0.00 | 0.00 | 66 | 1007.6 |
| 20260831014515 | 62 | 271 | 2.0 | 4.0 | 0.00 | 0.00 | 0.00 | 65 | 1007.6 |
| 20260831014014 | 63 | 271 | 2.0 | 7.0 | 0.00 | 0.00 | 0.00 | 64 | 1007.5 |
| 20260831013514 | 63 | 271 | 2.0 | 7.0 | 0.00 | 0.00 | 0.00 | 63 | 1007.3 |
| 20260831013014 | 64 | 262 | 2.0 | 6.0 | 0.00 | 0.00 | 0.00 | 64 | 1007.1 |
| 20260831012514 | 64 | 253 | 4.0 | 6.0 | 0.00 | 0.00 | 0.00 | 64 | 1007.1 |
| 20260831012014 | 64 | 245 | 2.0 | 8.0 | 0.00 | 0.00 | 0.00 | 65 | 1007.2 |
| 20260831011513 | 65 | 229 | 7.0 | 12.0 | 0.00 | 0.00 | 0.00 | 64 | 1007.2 |
| 20260831010516 | 65 | 242 | 8.0 | 13.0 | 0.00 | 0.00 | 0.00 | 64 | 1007.0 |
| 20260831010032 | 65 | 230 | 8.0 | 13.0 | 0.00 | 0.00 | 0.00 | 65 | 1007.0 |
| 20260831005515 | 65 | 223 | 9.0 | 15.0 | 0.00 | 0.00 | 0.00 | 65 | 1007.0 |
| 20260831005014 | 65 | 227 | 9.0 | 15.0 | 0.00 | 0.00 | 0.00 | 64 | 1007.0 |
| 20260831004618 | 65 | 234 | 11.0 | 15.0 | 0.00 | 0.00 | 0.00 | 64 | 1006.6 |
| 20260831004014 | 65 | 228 | 10.0 | 13.0 | 0.00 | 0.00 | 0.00 | 64 | 1006.7 |
| 20260831003514 | 65 | 228 | 7.0 | 12.0 | 0.00 | 0.00 | 0.00 | 65 | 1006.6 |
| 20260831003013 | 66 | 223 | 8.0 | 12.0 | 0.00 | 0.00 | 0.00 | 65 | 1006.6 |
| 20260831002514 | 66 | 236 | 8.0 | 15.0 | 0.00 | 0.00 | 0.00 | 66 | 1006.9 |
| 20260831002014 | 66 | 218 | 10.0 | 15.0 | 0.00 | 0.00 | 0.00 | 66 | 1006.9 |
| 20260831001527 | 66 | 227 | 8.0 | 14.0 | 0.00 | 0.00 | 0.00 | 67 | 1006.8 |
| 20260831000516 | 66 | 233 | 8.0 | 14.0 | 0.00 | 0.00 | 0.00 | 68 | 1006.9 |
| 20260831000016 | 64 | 237 | 7.0 | 10.0 | 0.00 | 0.00 | 0.00 | 70 | 1006.8 |
| 20260830235516 | 63 | 202 | 6.0 | 10.0 | 0.00 | 0.00 | 0.00 | 72 | 1006.8 |
| 20260830235017 | 63 | 236 | 6.0 | 10.0 | 0.00 | 0.00 | 0.00 | 74 | 1007.0 |
| 20260830234516 | 63 | 213 | 5.0 | 8.0 | 0.00 | 0.00 | 0.00 | 75 | 1007.1 |
| 20260830234019 | 62 | 226 | 5.0 | 7.0 | 0.00 | 0.00 | 0.00 | 75 | 1007.0 |
| 20260830233518 | 62 | 221 | 3.0 | 7.0 | 0.00 | 0.00 | 0.00 | 75 | 1007.1 |
| 20260830233016 | 62 | 235 | 3.0 | 6.0 | 0.00 | 0.00 | 0.00 | 76 | 1007.2 |
| 20260830232520 | 62 | 235 | 2.0 | 6.0 | 0.00 | 0.00 | 0.00 | 76 | 1007.3 |
| 20260830232016 | 62 | 235 | 3.0 | 6.0 | 0.00 | 0.00 | 0.00 | 75 | 1007.2 |
| 20260830231526 | 62 | 203 | 2.0 | 7.0 | 0.00 | 0.00 | 0.00 | 77 | 1007.2 |
| 20260830230513 | 62 | 167 | 0.0 | 6.0 | 0.00 | 0.00 | 0.00 | 77 | 1006.8 |
| 20260830230013 | 62 | 167 | 4.0 | 6.0 | 0.00 | 0.00 | 0.00 | 76 | 1006.6 |
| 20260830225513 | 62 | 194 | 0.0 | 4.0 | 0.00 | 0.00 | 0.00 | 74 | 1006.7 |
| 20260830225013 | 62 | 194 | 1.0 | 8.0 | 0.00 | 0.00 | 0.00 | 73 | 1006.4 |
| 20260830224513 | 62 | 236 | 2.0 | 14.0 | 0.00 | 0.00 | 0.00 | 72 | 1007.1 |
| 20260830224013 | 63 | 261 | 8.0 | 19.0 | 0.00 | 0.00 | 0.00 | 73 | 1008.1 |
| 20260830223513 | 64 | 238 | 8.0 | 19.0 | 0.00 | 0.00 | 0.00 | 70 | 1008.3 |
| 20260830223017 | 66 | 205 | 9.0 | 17.0 | 0.00 | 0.00 | 0.00 | 66 | 1008.5 |
| 20260830222511 | 66 | 275 | 7.0 | 21.0 | 0.00 | 0.00 | 0.00 | 62 | 1007.8 |
| 20260830222013 | 66 | 280 | 11.0 | 26.0 | 0.00 | 0.00 | 0.00 | 62 | 1008.5 |
| 20260830221511 | 68 | 238 | 14.0 | 20.0 | 0.00 | 0.00 | 0.00 | 59 | 1008.6 |
| 20260830220512 | 68 | 274 | 9.0 | 22.0 | 0.00 | 0.00 | 0.00 | 57 | 1008.1 |
| 20260830220013 | 68 | 235 | 8.0 | 22.0 | 0.00 | 0.00 | 0.00 | 57 | 1007.9 |
| 20260830215510 | 68 | 265 | 10.0 | 20.0 | 0.00 | 0.00 | 0.00 | 55 | 1007.5 |
| 20260830215009 | 68 | 242 | 12.0 | 23.0 | 0.00 | 0.00 | 0.00 | 56 | 1007.0 |
| 20260830214510 | 69 | 276 | 12.0 | 23.0 | 0.00 | 0.00 | 0.00 | 56 | 1007.1 |
| 20260830214008 | 70 | 317 | 11.0 | 23.0 | 0.00 | 0.00 | 0.00 | 57 | 1007.1 |
| 20260830213512 | 69 | 291 | 11.0 | 27.0 | 0.00 | 0.00 | 0.00 | 58 | 1006.7 |
| 20260830213010 | 69 | 296 | 12.0 | 27.0 | 0.00 | 0.00 | 0.00 | 58 | 1006.8 |
| 20260830212508 | 69 | 269 | 11.0 | 26.0 | 0.00 | 0.00 | 0.00 | 58 | 1006.7 |
| 20260830212009 | 69 | 269 | 14.0 | 24.0 | 0.00 | 0.00 | 0.00 | 56 | 1006.7 |
| 20260830211516 | 69 | 276 | 12.0 | 24.0 | 0.00 | 0.00 | 0.00 | 53 | 1006.6 |
| 20260830210503 | 71 | 287 | 11.0 | 24.0 | 0.00 | 0.00 | 0.00 | 55 | 1006.6 |
| 20260830210007 | 71 | 338 | 14.0 | 24.0 | 0.00 | 0.00 | 0.00 | 55 | 1006.7 |
| 20260830205503 | 71 | 279 | 10.0 | 22.0 | 0.00 | 0.00 | 0.00 | 58 | 1006.6 |
| 20260830205101 | 70 | 278 | 11.0 | 22.0 | 0.00 | 0.00 | 0.00 | 60 | 1006.6 |
| 20260830204600 | 70 | 277 | 9.0 | 20.0 | 0.00 | 0.00 | 0.00 | 64 | 1006.3 |
| 20260830204503 | 70 | 291 | 9.0 | 21.0 | 0.00 | 0.00 | 0.00 | 64 | 1006.5 |
| 20260830204102 | 70 | 317 | 9.0 | 21.0 | 0.00 | 0.00 | 0.00 | 64 | 1006.4 |
| 20260830203600 | 71 | 314 | 10.0 | 23.0 | 0.00 | 0.00 | 0.00 | 65 | 1006.5 |
| 20260830203116 | 72 | 294 | 11.0 | 23.0 | 0.00 | 0.00 | 0.00 | 64 | 1005.9 |
| 20260830202600 | 72 | 281 | 8.0 | 17.0 | 0.00 | 0.00 | 0.00 | 67 | 1005.4 |
| 20260830202057 | 71 | 30 | 5.0 | 11.0 | 0.00 | 0.00 | 0.00 | 71 | 1005.4 |
| 20260830201559 | 69 | 234 | 2.0 | 10.0 | 0.00 | 0.00 | 0.00 | 74 | 1005.3 |
| 20260830200557 | 70 | 313 | 4.0 | 12.0 | 0.00 | 0.00 | 0.00 | 70 | 1005.4 |
| 20260830195556 | 72 | 299 | 4.0 | 13.0 | 0.00 | 0.00 | 0.00 | 62 | 1005.4 |
| 20260830195057 | 74 | 269 | 6.0 | 14.0 | 0.00 | 0.00 | 0.00 | 60 | 1005.1 |
| 20260830194555 | 75 | 277 | 6.0 | 15.0 | 0.00 | 0.00 | 0.00 | 61 | 1004.8 |
| 20260830194059 | 75 | 275 | 7.0 | 15.0 | 0.00 | 0.00 | 0.00 | 62 | 1004.5 |
| 20260830193553 | 75 | 306 | 8.0 | 18.0 | 0.00 | 0.00 | 0.00 | 63 | 1004.5 |
| 20260830193055 | 75 | 264 | 6.0 | 16.0 | 0.00 | 0.00 | 0.00 | 62 | 1004.5 |
| 20260830192553 | 76 | 268 | 6.0 | 17.0 | 0.00 | 0.00 | 0.00 | 62 | 1004.6 |
| 20260830192053 | 76 | 284 | 9.0 | 17.0 | 0.00 | 0.00 | 0.00 | 60 | 1004.2 |
| 20260830191558 | 76 | 265 | 8.0 | 16.0 | 0.00 | 0.00 | 0.00 | 60 | 1004.3 |
| 20260830190554 | 77 | 286 | 8.0 | 16.0 | 0.00 | 0.00 | 0.00 | 58 | 1004.4 |
| 20260830190053 | 78 | 317 | 7.0 | 16.0 | 0.00 | 0.00 | 0.00 | 57 | 1004.7 |
| 20260830185556 | 79 | 300 | 7.0 | 16.0 | 0.00 | 0.00 | 0.00 | 57 | 1004.5 |
| 20260830185053 | 80 | 294 | 6.0 | 14.0 | 0.00 | 0.00 | 0.00 | 57 | 1004.3 |
| 20260830184552 | 79 | 315 | 7.0 | 16.0 | 0.00 | 0.00 | 0.00 | 56 | 1004.3 |
| 20260830184051 | 79 | 257 | 8.0 | 16.0 | 0.00 | 0.00 | 0.00 | 57 | 1004.2 |
| 20260830183554 | 79 | 276 | 7.0 | 12.0 | 0.00 | 0.00 | 0.00 | 56 | 1004.1 |
| 20260830183108 | 80 | 278 | 5.0 | 13.0 | 0.00 | 0.00 | 0.00 | 55 | 1004.2 |
| 20260830182551 | 80 | 254 | 8.0 | 16.0 | 0.00 | 0.00 | 0.00 | 55 | 1004.3 |
| 20260830182051 | 80 | 291 | 8.0 | 16.0 | 0.00 | 0.00 | 0.00 | 57 | 1004.1 |
| 20260830181557 | 80 | 256 | 6.0 | 15.0 | 0.00 | 0.00 | 0.00 | 58 | 1004.0 |
| 20260830180554 | 81 | 271 | 6.0 | 20.0 | 0.00 | 0.00 | 0.00 | 57 | 1003.9 |
| 20260830180107 | 81 | 259 | 8.0 | 20.0 | 0.00 | 0.00 | 0.00 | 58 | 1003.6 |
| 20260830175554 | 80 | 214 | 5.0 | 11.0 | 0.00 | 0.00 | 0.00 | 59 | 1003.7 |